Regional Weather Roundup
Issued by NWS Wakefield, VA

Home | Current Version | Previous Version | Graphics & Text | Print | Product List | Glossary On
Versions: 1 2 3 4 5 6 7 8 9 10 11 12 13 14 15 16 17 18 19 20 21 22 23 24 25 26 27
000
ASUS41 KAKQ 222215
RWRAKQ

REGIONAL WEATHER ROUNDUP
NATIONAL WEATHER SERVICE WAKEFIELD VA
600 PM EDT WED MAR 22 2017

Note: "fair" indicates few or no clouds below 12,000 feet with no
significant weather and/or obstructions to visibility. * = Denotes
station may not report precipitation (e.g., rain,snow,etc.),
thunder or fog.

VAZ042-051-052>054-056-222300-
NORTHERN VIRGINIA

CITY           SKY/WX    TMP DP  RH WIND       PRES   REMARKS
WASH NATIONAL  SUNNY     47   6  18 NW18G26   30.32R
DULLES         SUNNY     44   6  21 NW20      30.33R
FORT BELVOIR   SUNNY     47   5  17 NW15G23   30.32R
QUANTICO       SUNNY     48   8  19 N23G30    30.33R
FREDERICKSBRG* SUNNY     49  15  26 NW12G22   30.30R
STAFFORD*      SUNNY     47  10  22 NW10      30.35R
WARRENTON      SUNNY     48  -4  11 NW15G23   30.32R
CULPEPER*      SUNNY     48  10  21 NW10G16   30.32S
MANASSAS*      SUNNY     46   6  19 N20       30.33R
LEESBURG*      SUNNY     45  12  26 N16G28    30.34R
WINCHESTER     SUNNY     43   5  21 NW10G16   30.33R
FRONT ROYAL*   CLEAR     45   9  23 NW13G20   30.31S
LURAY*         CLEAR     45  16  31 NW9G18    30.31R
$$

VAZ048-049-060>072-079>083-222300-
CENTRAL AND SOUTH CENTRAL VIRGINIA

CITY           SKY/WX    TMP DP  RH WIND       PRES   REMARKS
RICHMOND       SUNNY     50  11  20 N16G30    30.28R
CHESTERFIELD*  FAIR      52   9  17 N12G23    30.30R
PETERSBURG*    SUNNY     49   6  17 N13G25    30.29R
HANOVER        SUNNY     50  10  20 NW10G18   30.32R
TAPPAHANNOCK*  SUNNY     49 -13   7 N7        30.30R
QUINTON*       FAIR      49  10  21 N16G25    30.28R
CHARLOTTSVILLE SUNNY     50  10  20 N9        30.30R
GORDONSVILLE*  CLEAR     49  10  20 N10       30.30R
ORANGE*        SUNNY     46  10  23 NE14      30.31S
LOUISA*        SUNNY     54  16  22 NE10      30.28R
BUMPASS*       FAIR      48   8  19 N8G16     30.30R
FARMVILLE*     SUNNY     53  11  19 N14G20    30.26R
CREWE*         FAIR      51   9  18 N10G21    30.26R
FORT PICKETT*  FAIR      52  -5   9 N8G20     30.27R
CHASE CITY*    FAIR      54   3  13 N12       30.25R
CLARKSVILLE*   FAIR      54  12  19 NE6       30.25R
SOUTH HILL*    SUNNY     53  16  23 N15       30.31R
LAWRENCEVILLE* FAIR      52  10  18 N3        30.26R
EMPORIA*       SUNNY     50  12  22 N10G16    30.30R
$$

VAZ088>098-222300-
SOUTHEAST VIRGINIA

CITY           SKY/WX    TMP DP  RH WIND       PRES   REMARKS
NORFOLK        SUNNY     47  25  42 N17G24    30.27R
VIRGINIA BEACH MOSUNNY   47  19  33 N16       30.27R
NORFOLK NAVAL  MOSUNNY   48  26  42 NE16G23   30.29R
WEST POINT*    SUNNY     49   8  18 NW10G22   30.30R
SALUDA*        FAIR      47  18  30 N16G24    30.27R
NEWPORT NEWS   SUNNY     50  15  24 N15G22    30.27R
LANGLEY AFB    SUNNY     49  15  25 N15G25    30.26R
FORT EUSTIS    SUNNY     52  17  25 N10G18    30.25R
WILLIAMSBURG*  SUNNY     54  18  24 N14G22    30.29R
HR EXEC AP*    FAIR      50  14  23 N6        30.26R
FRANKLIN*      SUNNY     51  15  23 N10G16    30.28R
US460-WAKEFLD  SUNNY     50  12  21 N10G17    30.28R
$$

VAZ020-022-025-037-045-222300-
WEST CENTRAL AND SOUTHWEST VIRGINIA

CITY           SKY/WX    TMP DP  RH WIND       PRES   REMARKS
STAUNTON*      SUNNY     45  11  25 N13       30.31R
WAYNESBORO*    CLEAR     46  13  27 N8        30.28R
HOT SPRINGS VA SUNNY     37   0  20 NW14      30.23R
LYNCHBURG      SUNNY     54   4  13 N7        30.26R
DANVILLE       SUNNY     57  15  19 NE13      30.23R
SOUTH BOSTON*  FAIR      56   8  14 N7        30.24R
MARTINSVILLE   SUNNY     58  11  15 NE8       30.25R
ROANOKE        SUNNY     55  12  18 NW15      30.26R
BLACKSBURG     SUNNY     49  18  29 N5G16     30.28S
DUBLIN*        SUNNY     48  17  28 N10       30.28R
MARION*        SUNNY     50  12  22 N5        30.27R
HILLSVILLE*    SUNNY     48  16  28 N8G17     30.22R
RICHLANDS*     FAIR      45  15  30 CALM      30.27R
WISE*          SUNNY     45  14  29 CALM      30.29S
ABINGDON*      SUNNY     52  10  18 E10       30.26R
$$

MDZ021>025-VAZ099-100-222300-
SOUTHERN MARYLAND AND THE DELMARVA PENINSULA

CITY           SKY/WX    TMP DP  RH WIND       PRES   REMARKS
PATUXENT RIVER SUNNY     45  21  38 N18       30.29R
BAY BRIDGE APT SUNNY     43  12  28 N13G24    30.31R
LEONARDTOWN    SUNNY     46   9  21 N10G16    30.31R
DOVER          SUNNY     40  10  28 NW17      30.29R
GEORGETOWN     SUNNY     43   7  22 N16G22    30.29R
EASTON         SUNNY     45   3  18 NW16G22   30.34R
CAMBRIDGE      SUNNY     45   7  21 N10G25    30.30R
SALISBURY      SUNNY     45   9  23 N15G28    30.27R
OCEAN CITY     SUNNY     44  13  28 N10       30.27R
WALLOPS ISLAND SUNNY     45   8  22 NW16G31   30.27R
ACCOMACK*      SUNNY     46  18  32 N13G23    30.27R
$$

NCZ012>017-030>032-222300-
NORTH CENTRAL AND EASTERN NORTH CAROLINA

CITY           SKY/WX    TMP DP  RH WIND       PRES   REMARKS
ROANOKE RAPIDS FAIR      52  14  22 N13G20    30.26R
RALEIGH        MOSUNNY   58  14  17 NE15G24   30.22R
ELIZABETH CITY SUNNY     49  25  39 N17       30.27R
AHOSKIE*       NOT AVBL
EDENTON*       SUNNY     54  18  24 NE8G16    30.26R
CURRITUCK*     SUNNY     49  22  34 N14G21    30.27R
KILL DEVIL HLS NOT AVBL
MANTEO         SUNNY     47  23  38 N21G28    30.27R
CAPE HATTERAS  SUNNY     48  28  46 N14G26    30.26R
TARBORO*       NOT AVBL
GOLDSBORO      MOSUNNY   59  11  15 N12       30.20R
WASHINGTON     MOSUNNY   55  20  26 N15       30.23R
GREENVILLE     SUNNY     55  18  22 N13       30.25R
NEW BERN       SUNNY     56  21  25 N13       30.23R
WILMINGTON     CLOUDY    58  46  64 E9G20     30.18R
$$

VAZ048-222300-
ELSEWHERE

CITY           SKY/WX    TMP DP  RH WIND       PRES   REMARKS
HARRISBURG PA  SUNNY     40   0  18 N14G28    30.32R
BALTIMORE      SUNNY     44   3  18 NW16G29   30.30R
ANNAPOLIS      SUNNY     46  15  28 NW15      30.30R
ANDREWS AFB    SUNNY     44   5  20 N18       30.30R
PHILADELPHIA   SUNNY     38   1  21 NW22G32   30.32R
HENDERSON NC   SUNNY     52   7  16 N12G18    30.24R
GREENSBORO     PTSUNNY   58  12  16 NE12      30.20R
ROCKY MOUNT    SUNNY     56  19  23 NE13      30.24R
$$

VAZ100-222300-
MARINE

STATION/POSITION TIME  TEMP    WIND        PRES    WAVE   SWELL
                       AIR SEA DIR/SP/G            HT/PER HT/PER
                 (UTC) (F)     (DEG/KT/KT) (MB)    (FT/S) (FT/S)
CAPE MAY NJ      2142   39 44  340/ 15/ 20 1025.0R
LEWES DE         2136   40 45  360/ 24/ 28 1025.5R
OCEAN-CITY-INLET 2136   42 44   20/ 17/ 22 1025.1R
WACHAPREAGUE VA  2136   45 52  360/ 13/ 20 1024.3R
THOMAS POINT MD  2200   44 44  350/ 18/ 21   N/A
GOOSES REEF MD   2150   44      50/ 16/ 19 1026.1R
COVE POINT MD    2136   43      30/ 20/ 24 1026.0R
SOLOMONS ISLAND  2136   46 46  330/ 17/ 23   N/A
BISHOPS HEAD MD  2136   45 52  340/ 13/ 19 1025.6R
PINEY POINT MD   2136          350/ 21/ 23   N/A
POTOMAC MD       2150   45      20/ 16/ 19 1024.9R
CAMBRIDGE MD     2136   43 44  340/ 15/ 21 1024.9R
LEWISETTA VA     2136   47 49  340/ 15/ 20 1025.1R
RAPPAHANNOCK LGT 2136          360/ 25/ 29 1025.1R
STINGRAY PT      2150   47     360/ 17/ 23 1025.0R
YORK RVR RNG VA  2136   47     350/ 23/ 27 1023.8R
YORKTOWN VA      2136   48 48  330/ 16/ 22 1024.7R
JAMESTOWN VA     2150   49     350/ 10/ 17   N/A
DOMINION TERM VA 2136   50      10/  4/ 10 1024.7R
KIPTOPEKE VA     2136      47   20/ 17/ 23   N/A
CHES BAY BRIDGE  2136   44 47   20/ 23/ 26 1024.7R
CAPE HENRY VA    2136   45     360/ 21/ 24   N/A
WILLOUBY STN VA  2136   46      10/ 16/ 18 1025.7R
S CRANEY ISL VA  2136   46      40/ 15/ 21 1024.3R
CAPE HENRY BUOY  2142      46                N/A     6/ 6   2/11
CAPE CHARLES BUO 2151      46                N/A     5/11   2/11
OFFSHORE WE BUOY 2151      46                N/A     7/ 6   2/11
64NM E OF VA BCH 2150   45 51   10/ 19/ 23 1023.7R   9/ 6   3/11
DUCK PIER NC     2136   45 49   10/ 22/ 25 1023.5R
44100 DUCK FRF   2135      47                N/A     8/ 6   2/12
44056 DUCK FRF   2130      47                N/A     7/ 6   2/11
OREGON INLET NC  2136   46 52  360/ 16/ 25 1024.4R
HATTERAS NC      2148           10/ 25/ 29   N/A
DIAMOND SHLS NC  2150   48 73   10/ 27/ 35 1023.4R  10/ 7
CAPE LOOKOUT NC  2100   51      40/ 26/ 31 1022.2R
$$




USA.gov is the U.S. government's official web portal to all federal, state and local government web resources and services.